Wind_Speed
16 20 23 24 26 25 23 22 21 20 19 18 18 18 17 16 17 17 17 18 19 17 17 17 17 17 18 18 17 18 18 19 19 19 20 21 22 24 25 25 24 24 23 21 20 22 24 25 25 27 27 27 26 26 27 28 31 37 41 39 36 35 33 32 32 32 32 32 32 31 31 31 31 30 30 30 29 29 28 27 26 26 25 25 24 23 23
15 17 20 23 24 24 23 23 22 21 20 20 19 19 19 18 18 18 17 18 19 18 17 17 18 18 17 17 17 17 18 18 18 19 19 20 21 24 26 26 26 25 25 24 22 22 23 24 25 27 27 28 28 28 27 27 28 34 40 40 38 37 35 34 34 33 31 31 32 31 31 31 31 31 31 31 31 31 30 29 29 28 28 27 26 26 25
15 15 17 20 23 24 24 24 24 23 22 21 20 20 21 21 19 19 18 19 19 19 17 18 19 18 17 17 17 17 18 18 18 18 18 19 20 22 25 27 27 26 26 26 25 24 23 24 25 26 27 28 28 29 28 26 27 32 40 41 39 38 37 35 34 32 31 31 31 31 30 30 31 31 31 32 32 32 31 30 29 29 28 28 28 28 27
15 14 15 18 20 22 24 25 24 24 23 23 23 23 23 23 21 19 18 19 19 19 18 18 19 18 17 17 18 18 18 18 18 18 18 18 19 21 23 26 28 28 27 27 27 27 25 24 23 25 27 27 28 29 28 26 26 31 39 42 40 39 38 36 34 33 33 32 31 31 31 31 31 32 32 32 32 31 31 30 29 28 29 29 29 29 28
14 14 15 16 18 20 22 23 23 23 24 24 25 25 25 24 22 20 19 19 19 18 18 18 18 18 17 17 18 18 18 19 19 20 19 19 19 20 22 24 26 28 28 27 27 28 27 25 23 24 26 27 27 28 28 26 26 30 38 41 40 40 38 36 35 35 35 34 33 33 34 35 35 35 34 33 32 31 31 30 30 29 29 30 30 30 29
14 14 14 15 17 18 19 20 20 21 22 23 24 25 25 25 22 20 19 19 19 18 18 18 18 18 17 17 18 18 18 19 20 20 20 20 20 20 21 22 24 27 28 27 27 28 28 26 24 23 25 26 27 26 26 25 23 28 38 40 38 39 38 37 38 38 37 36 35 35 36 38 38 37 35 34 32 30 31 32 32 31 30 31 32 32 30
15 14 13 13 13 14 16 16 17 18 19 21 22 23 24 23 21 20 20 19 19 19 18 17 18 18 17 17 18 18 18 19 20 21 21 21 21 21 21 21 22 25 27 27 27 28 28 27 25 23 24 25 26 26 26 25 22 25 35 38 36 35 36 37 38 37 36 35 35 36 37 38 38 37 36 34 32 32 33 34 34 33 32 32 34 33 31
17 14 13 12 10 10 11 12 13 15 17 19 21 21 21 21 20 21 21 20 19 18 17 17 17 17 17 18 18 18 18 19 20 21 22 22 21 21 21 21 21 23 25 26 26 27 28 27 25 23 23 24 25 25 26 26 24 23 28 32 33 34 35 36 36 36 36 37 38 38 37 37 37 38 37 35 33 34 35 35 35 36 36 34 33 32 31
18 15 14 13 11 9 9 10 12 14 16 18 19 18 18 19 20 21 21 21 20 18 17 17 17 17 18 18 19 18 19 20 21 21 21 21 21 21 21 21 21 22 23 24 25 26 27 27 26 24 23 23 24 24 25 25 25 24 24 25 28 32 34 33 33 33 35 37 39 40 40 39 37 38 38 37 37 37 37 36 37 39 38 35 33 33 33
18 16 15 14 12 10 9 9 11 13 15 18 18 16 17 19 20 21 21 21 20 19 18 18 18 18 18 19 19 19 20 21 22 22 21 21 21 20 20 20 21 21 21 22 23 25 26 26 26 25 24 23 23 24 23 23 24 24 23 24 26 28 29 30 30 32 34 36 36 38 39 40 40 40 40 39 39 39 39 37 38 39 39 36 33 33 34
19 17 17 16 14 12 10 10 11 13 15 18 18 16 16 19 20 21 21 20 20 19 18 18 18 18 19 20 20 20 21 22 22 22 21 21 21 20 20 19 20 20 20 21 22 24 25 25 25 26 25 23 22 22 22 22 23 22 22 23 25 25 27 28 29 30 33 35 35 36 39 40 41 42 42 40 40 42 42 39 38 39 39 38 35 34 35
20 19 18 17 15 13 11 11 13 14 16 18 18 17 17 19 21 22 22 21 20 18 18 18 18 19 19 20 20 21 21 22 21 21 21 20 20 21 20 18 18 19 20 20 21 22 23 23 24 25 25 24 22 20 19 19 19 19 20 21 22 22 24 25 26 27 29 30 33 37 40 41 41 42 44 45 43 43 44 42 39 39 40 39 38 36 35
23 21 20 18 16 14 14 15 16 17 17 18 18 18 19 19 20 21 22 21 20 18 18 18 19 19 20 20 21 21 21 21 20 20 20 20 20 20 19 18 18 19 20 20 20 21 21 21 22 23 24 23 20 18 16 16 16 17 19 20 20 20 21 21 22 23 24 25 30 35 35 34 35 39 44 47 46 45 46 44 41 40 42 41 40 37 34
25 24 21 19 17 17 18 19 19 19 19 20 20 20 20 20 21 21 21 20 20 19 18 18 18 18 19 20 21 21 21 21 20 20 20 20 20 20 19 19 19 19 19 19 18 19 20 20 20 22 22 20 17 15 14 14 15 15 16 18 19 21 21 21 20 20 21 24 29 30 26 25 27 30 35 41 43 46 47 45 41 40 40 39 38 37 36
27 26 23 21 21 20 20 21 21 21 21 20 20 21 21 21 22 21 19 18 18 18 18 18 17 17 19 20 21 22 22 21 21 21 21 20 19 19 19 19 19 19 20 20 19 18 19 20 19 20 19 17 15 14 14 15 15 14 14 15 18 20 21 21 22 23 23 25 28 28 24 23 23 25 28 32 37 41 43 41 39 38 37 36 36 35 35
29 28 26 25 23 23 22 22 23 23 22 20 20 21 21 21 21 20 19 17 17 17 18 18 18 18 19 21 21 22 21 21 21 20 20 20 19 18 19 19 19 19 19 21 22 19 18 18 18 17 16 15 15 15 15 16 16 15 14 13 13 15 18 19 20 23 25 27 28 30 29 26 23 22 23 24 26 30 34 35 34 32 31 31 30 29 29
32 30 30 28 26 25 25 25 25 25 24 22 21 21 21 21 21 20 19 18 17 18 18 18 18 19 20 21 21 21 20 20 20 20 20 19 18 18 18 18 18 17 15 17 21 21 19 18 17 16 15 14 14 15 16 16 15 15 15 14 11 11 13 13 12 13 17 17 17 18 19 18 17 17 16 15 14 16 21 24 27 26 24 23 25 26 26
34 34 33 32 30 29 28 28 27 27 26 25 22 20 20 22 22 20 19 18 18 19 19 19 20 20 21 22 21 20 19 19 20 20 20 19 17 17 17 16 16 16 14 12 15 17 17 17 16 16 15 14 14 14 13 11 11 12 14 15 13 11 10 11 11 11 12 13 11 9 9 11 12 14 16 16 16 16 16 16 18 19 19 18 20 21 22
37 37 36 35 34 33 31 30 29 28 28 26 22 20 20 21 21 20 19 19 19 20 20 20 21 21 21 21 20 19 18 19 20 20 19 18 16 16 15 15 15 16 15 14 13 12 12 13 14 14 14 15 16 15 12 9 9 11 12 11 12 12 10 10 13 13 13 13 13 11 10 9 10 12 15 17 17 17 17 16 15 16 16 15 15 16 17
40 39 38 38 37 35 33 32 31 30 28 25 23 21 20 20 20 19 19 19 19 20 20 20 21 21 21 21 19 18 18 19 20 18 16 15 14 14 14 14 15 15 15 16 15 12 12 13 13 14 15 15 17 17 15 12 11 10 10 8 9 10 8 7 9 11 12 12 11 11 10 10 9 10 11 12 13 15 15 14 13 13 13 13 14 14 16
41 41 40 40 39 38 36 35 33 31 28 25 23 21 20 20 19 19 18 18 18 19 19 19 19 19 19 19 19 18 19 19 18 16 14 13 13 13 13 13 13 14 14 15 15 14 14 15 15 15 16 16 16 16 16 15 12 10 9 7 6 7 6 6 5 6 7 8 8 8 8 8 7 6 6 7 8 9 9 10 10 10 11 12 13 14 15
44 44 44 43 41 38 36 35 33 31 27 24 22 21 20 19 18 17 16 16 16 17 17 17 17 17 18 18 18 18 18 18 16 15 15 14 12 13 13 13 13 13 15 16 16 16 17 17 16 16 16 16 16 15 14 14 12 11 9 7 6 5 5 5 4 4 4 5 4 4 4 5 5 5 5 5 6 7 7 8 9 9 10 12 13 14 15
46 46 45 43 39 36 34 33 31 28 24 22 21 21 19 17 16 16 17 17 17 17 17 17 17 17 18 18 18 18 18 17 16 15 15 14 13 13 14 14 13 13 15 18 18 18 19 18 17 16 15 15 15 14 13 11 10 9 9 7 6 5 4 4 5 5 5 6 5 5 5 5 6 6 6 7 7 8 8 9 9 10 11 11 12 13 14
44 43 42 39 36 34 32 31 28 25 23 22 21 20 18 17 17 17 18 18 18 18 18 18 18 18 18 18 18 18 17 16 14 14 14 12 12 13 14 15 14 12 14 18 21 20 19 18 17 15 15 14 14 13 12 11 10 10 9 8 7 6 6 6 6 7 7 8 8 8 8 8 8 8 8 8 9 9 9 10 10 11 11 12 13 13 14
40 39 38 35 33 31 30 28 26 24 23 22 21 20 19 19 19 19 19 19 19 18 19 19 19 18 18 18 17 18 17 15 14 13 12 10 12 13 13 12 13 12 12 15 19 21 20 18 17 16 15 14 14 13 13 13 13 12 10 9 9 8 8 8 8 8 9 9 9 9 9 9 9 9 9 10 10 10 10 10 10 10 11 12 12 13 13
38 36 34 32 30 29 28 26 25 24 22 22 21 21 21 21 20 20 20 20 19 19 19 19 19 18 18 17 17 17 16 14 13 13 12 11 13 15 13 11 12 12 12 13 16 19 20 19 18 17 16 16 15 15 16 16 16 15 13 12 11 11 11 11 11 11 10 10 9 9 9 10 10 10 10 10 10 10 10 10 11 11 12 12 13 13 13
34 32 31 30 28 28 27 27 25 23 21 20 20 20 21 21 21 21 21 20 20 19 18 18 18 19 18 17 17 17 15 14 13 12 12 12 13 13 13 13 12 12 12 13 14 17 19 20 19 18 18 18 17 17 17 18 18 18 17 16 14 14 13 13 12 12 11 10 9 9 9 10 10 11 11 11 11 11 11 11 11 12 12 13 13 14 14
31 31 31 29 28 28 28 27 25 23 21 20 19 19 20 21 21 20 20 20 19 19 18 18 18 18 18 16 16 15 14 13 12 11 11 11 11 12 13 14 14 13 12 13 14 16 18 19 19 19 19 19 19 19 19 19 19 20 19 19 18 17 16 15 13 12 11 10 9 9 9 10 10 11 11 11 11 12 12 12 12 13 13 13 14 15 16
31 31 30 28 27 27 27 26 25 24 22 20 19 20 21 22 21 20 19 18 18 18 18 17 17 17 17 15 14 14 12 10 9 9 9 10 11 11 11 12 13 13 13 13 15 17 19 20 20 19 20 21 21 21 21 20 20 21 21 21 20 19 17 16 14 12 11 10 9 10 10 11 11 12 12 13 12 12 12 13 13 14 14 15 15 16 17
32 32 30 28 27 27 26 25 25 25 24 22 21 21 22 22 22 20 18 18 18 18 17 17 16 16 16 14 13 13 10 7 7 8 8 8 8 9 10 10 12 13 13 14 15 17 19 20 20 17 16 16 16 19 21 21 20 21 22 21 20 19 17 15 14 13 13 12 11 11 11 12 12 13 13 13 13 13 13 14 14 15 16 16 17 18 19
33 32 31 29 28 27 26 26 26 27 26 25 24 22 22 22 21 19 18 17 18 18 17 17 17 17 15 14 13 12 9 7 8 10 9 7 7 7 9 10 10 10 11 12 13 15 16 17 17 16 14 13 13 16 18 19 19 20 21 21 19 18 16 15 15 15 14 13 12 12 12 12 12 12 12 12 13 14 14 15 15 16 17 17 18 19 20
33 32 30 29 28 28 28 27 27 28 29 28 25 23 22 21 20 19 18 18 18 18 18 17 17 16 15 14 13 12 9 8 10 11 10 9 9 10 11 10 10 9 9 9 11 13 12 13 14 15 15 15 15 16 18 20 20 20 20 19 18 17 17 17 16 16 14 13 13 12 12 12 12 12 13 13 14 15 16 16 17 17 18 19 19 20 20
30 28 28 27 27 27 27 27 28 29 30 29 27 24 22 21 20 19 18 19 19 19 18 17 17 16 14 14 14 13 11 9 10 10 10 10 10 10 10 10 9 8 7 7 9 11 11 12 13 14 15 15 16 17 20 23 22 20 19 19 18 18 18 18 17 16 15 14 13 13 13 13 13 14 14 15 16 17 18 19 19 20 20 20 20 20 21
27 26 27 27 27 27 27 28 28 28 29 29 27 25 23 22 21 19 19 19 20 19 19 18 17 15 15 14 14 14 12 11 10 10 10 11 11 10 10 10 10 9 7 6 8 9 10 11 12 13 13 14 14 15 18 21 22 21 20 20 20 19 18 17 16 16 15 15 14 14 14 14 15 15 16 17 18 19 19 20 21 21 21 21 21 21 22
26 26 27 27 27 27 28 27 27 27 27 26 25 25 24 23 21 20 20 20 20 20 20 19 18 17 16 16 15 15 13 12 12 12 11 11 11 11 12 12 12 10 9 8 9 10 10 10 11 11 11 12 13 13 15 17 19 20 20 20 18 17 16 15 14 14 15 15 15 15 16 16 17 17 18 19 19 20 21 21 21 21 21 21 22 22 23
26 27 27 26 26 26 26 26 26 26 26 25 25 25 24 23 22 22 21 21 21 21 21 21 20 19 18 17 16 15 14 13 13 12 11 10 10 11 12 13 13 12 11 11 11 10 10 10 10 10 10 10 10 11 11 13 14 15 17 17 16 14 14 14 14 15 15 16 17 17 17 18 18 19 19 20 21 21 22 22 22 22 23 23 24 25 27
27 27 28 28 27 27 26 27 27 27 26 26 26 26 25 25 24 23 22 22 23 22 21 22 22 20 18 17 16 15 15 14 13 12 11 10 11 11 11 12 13 13 13 12 11 11 10 10 9 9 8 9 9 9 9 9 9 10 12 12 12 13 14 15 16 17 17 18 18 19 19 19 20 20 21 22 22 23 23 23 24 25 26 27 28 30 31
26 27 29 29 29 28 28 28 28 28 27 28 28 28 27 26 25 23 23 24 23 22 21 22 22 20 18 18 17 17 16 15 14 12 11 10 10 10 11 12 13 13 13 12 11 10 10 9 9 8 8 8 8 8 8 8 9 9 10 11 12 14 15 16 17 18 19 20 20 20 21 21 21 22 23 24 25 25 26 26 27 28 30 31 33 34 35
24 26 27 28 28 28 28 28 28 27 27 27 27 27 28 27 25 25 24 24 24 23 22 22 21 20 20 19 19 18 17 16 14 13 11 10 9 10 11 12 13 14 13 12 11 10 9 9 9 9 8 8 8 8 9 9 10 11 12 13 14 15 16 17 18 19 19 20 20 21 21 22 23 24 25 26 27 28 29 29 31 32 33 34 35 36 37
23 24 25 26 27 27 27 27 27 26 25 25 25 27 27 27 26 25 25 25 24 23 23 22 22 21 21 20 19 18 17 16 15 14 12 11 10 11 12 13 15 15 14 13 11 11 11 11 11 10 10 10 10 10 10 11 12 13 13 14 15 16 17 18 19 19 20 20 21 21 22 24 25 26 27 28 28 29 30 31 32 33 34 35 36 36 37
21 22 23 24 25 26 26 27 26 25 24 24 25 27 27 26 25 25 25 25 25 24 24 23 23 22 21 21 20 19 17 16 16 15 14 13 12 12 13 15 17 17 16 14 13 13 13 13 13 12 12 12 12 12 12 13 13 14 15 16 17 18 19 20 20 21 21 22 22 23 24 25 26 27 27 28 29 29 30 31 32 33 34 35 36 36 37
19 20 22 23 24 24 25 25 25 24 24 25 26 27 27 26 25 25 25 25 24 24 24 24 22 21 21 20 20 19 19 18 18 17 16 15 14 14 15 17 18 18 17 16 15 14 15 14 14 14 14 14 14 14 14 15 16 17 17 18 19 20 21 21 22 22 23 23 24 24 25 25 26 27 28 28 29 30 31 32 33 33 34 35 36 37 38
18 19 20 21 22 23 23 23 23 24 25 26 27 27 27 26 25 25 24 23 23 24 24 23 22 21 21 21 20 20 21 21 21 20 18 17 15 15 17 18 19 19 18 17 16 16 17 17 16 16 16 16 17 17 17 18 18 19 20 21 21 22 22 22 22 23 23 24 24 25 25 26 26 27 28 29 30 30 31 32 33 33 34 36 36 37 38
18 19 19 20 21 22 23 23 23 24 26 27 27 27 27 26 26 24 24 23 24 25 25 24 23 23 22 22 22 23 23 24 23 22 20 18 17 17 19 20 21 20 20 20 19 19 19 19 19 19 20 20 20 20 20 21 21 22 22 23 22 22 21 22 22 23 23 24 25 25 26 27 27 28 29 29 30 31 32 32 33 34 35 36 36 37 38
19 19 19 19 20 21 22 23 24 24 26 27 27 27 27 27 26 25 24 24 24 24 24 23 23 23 24 24 24 24 24 24 24 23 21 20 20 20 20 21 21 21 22 22 21 21 22 22 22 22 22 22 22 23 23 23 23 24 23 22 21 21 21 22 23 23 24 25 26 26 27 28 29 29 30 30 30 31 32 33 34 34 35 35 36 37 38
19 18 18 19 20 21 22 23 24 24 25 26 27 27 27 27 26 25 24 24 24 23 22 22 22 23 24 24 24 23 22 23 24 24 24 23 22 21 21 22 22 22 22 22 22 23 23 23 23 23 24 24 24 25 25 25 24 24 23 22 21 22 22 23 24 25 26 26 27 28 28 29 30 30 31 31 31 32 33 33 33 33 34 35 35 36 37
19 18 19 19 20 21 22 23 23 23 24 25 27 27 27 27 26 26 26 26 24 22 21 21 21 22 22 23 22 21 21 22 23 24 24 24 23 23 23 23 23 23 23 24 24 23 23 23 23 24 25 25 25 25 25 24 24 23 22 22 22 23 24 24 25 26 27 28 28 29 29 30 30 31 32 32 32 32 32 32 32 33 34 35 35 36 37
18 19 20 21 21 22 22 23 23 23 24 25 27 28 28 27 26 26 26 26 24 22 20 20 21 22 23 23 23 21 20 20 20 21 22 23 24 24 24 24 24 24 23 23 23 22 21 22 23 24 24 24 24 24 23 23 23 23 23 23 24 24 25 26 27 27 28 28 29 29 30 30 31 31 32 32 32 32 32 32 33 34 35 35 36 36 36
17 17 19 21 21 22 23 23 24 25 26 27 28 28 29 28 26 26 26 27 26 24 22 22 23 24 24 23 22 21 20 19 19 19 20 22 23 24 25 25 25 24 23 22 20 20 20 21 22 23 23 23 23 23 23 23 23 24 24 25 25 26 27 27 28 28 29 29 29 30 30 30 31 31 32 32 31 32 32 33 34 35 36 36 36 36 36
16 16 18 20 22 22 23 25 26 27 28 27 27 28 28 28 27 26 26 26 26 25 24 24 25 25 24 23 22 21 20 19 19 19 20 21 22 23 24 25 25 24 22 20 19 19 20 21 22 22 23 23 23 23 24 24 24 25 25 26 27 27 28 28 28 29 29 29 29 30 30 31 31 31 31 31 31 32 33 34 35 35 35 35 36 36 36
17 16 17 19 20 22 23 25 27 27 27 27 27 28 29 28 27 25 25 25 25 24 23 23 24 24 24 23 21 20 19 19 20 20 21 21 21 22 23 24 24 22 21 19 19 21 22 23 23 23 23 24 24 24 25 25 26 26 26 27 27 28 28 29 29 29 29 29 30 30 30 30 30 30 30 30 31 32 33 34 35 35 35 35 35 36 36
19 18 17 17 18 19 20 22 23 24 25 25 27 27 27 26 24 24 23 23 24 23 22 22 23 24 23 22 21 20 20 20 21 21 21 20 19 20 22 23 23 22 21 20 21 22 23 23 24 24 24 25 25 25 26 26 27 27 27 27 28 28 29 29 29 29 29 30 30 30 30 30 30 30 30 30 31 32 33 34 34 34 34 34 34 35 35
Wind_Direction
267 255 253 253 254 256 259 263 267 270 274 277 281 286 290 295 299 304 312 312 302 288 281 282 283 279 275 276 279 281 283 282 280 277 272 266 261 258 258 256 251 248 249 253 251 245 245 246 245 246 247 248 248 248 246 247 242 231 228 229 228 224 224 226 230 233 234 233 230 227 228 230 232 232 231 230 231 233 234 236 237 239 241 243 245 245 244
269 255 249 250 252 255 259 263 268 271 275 277 279 284 288 291 294 297 303 304 296 286 281 279 278 277 277 279 281 281 281 280 279 278 276 270 263 258 256 255 253 247 245 248 251 249 247 247 246 246 247 247 248 249 249 250 246 234 227 227 226 224 223 225 229 233 234 236 236 234 232 232 233 234 234 233 233 233 234 235 236 237 239 242 244 245 245
269 258 249 247 248 250 254 258 262 266 269 272 276 281 284 288 291 294 296 295 290 284 280 276 275 276 278 280 282 280 278 279 281 281 280 277 269 261 256 254 252 249 245 245 248 251 249 248 247 245 246 247 247 249 251 252 250 237 226 223 223 222 221 223 229 233 235 236 239 238 237 237 238 238 237 237 237 236 236 236 238 240 242 243 245 245 246
266 259 252 250 248 248 251 255 259 264 268 271 275 279 282 286 291 293 290 288 286 283 278 274 273 274 277 279 281 281 283 287 289 289 288 285 278 269 260 255 252 249 246 243 245 249 250 250 249 246 246 246 245 247 250 253 254 240 225 221 221 220 221 225 229 232 233 233 236 237 237 239 243 244 243 241 241 241 240 239 239 241 244 246 246 247 248
267 260 254 252 252 252 254 258 262 267 270 272 275 278 282 286 289 290 287 284 284 280 275 273 274 275 278 280 282 286 290 294 295 295 294 291 285 277 268 261 255 250 246 242 241 245 248 249 250 248 246 244 244 245 247 253 256 239 223 219 220 220 224 231 233 234 234 231 231 233 235 236 239 242 244 245 245 245 245 244 243 243 244 246 246 246 247
272 266 258 255 256 256 257 260 264 267 268 269 272 276 280 284 287 287 285 283 281 276 273 274 276 277 279 281 285 290 294 296 296 297 297 295 291 282 274 266 260 253 247 242 240 241 244 246 248 248 245 243 242 242 243 250 253 233 219 218 221 224 229 234 236 237 236 233 233 236 238 238 238 238 241 244 246 246 246 245 243 242 243 246 247 247 247
276 270 259 255 256 257 258 261 262 264 266 269 273 277 282 286 287 285 284 284 280 274 272 273 274 275 278 282 288 292 293 296 299 299 299 297 293 286 277 269 262 256 250 244 240 239 240 242 243 245 245 242 241 240 238 242 245 230 218 218 223 229 235 239 240 240 238 236 238 241 243 243 242 240 239 242 244 244 244 243 243 242 242 242 244 246 247
277 271 261 254 251 252 257 263 266 268 271 275 278 284 287 287 284 283 284 286 281 274 271 273 274 276 281 285 288 290 293 297 300 300 299 298 294 288 280 272 264 258 253 247 241 239 240 240 240 243 245 241 238 237 236 237 240 234 223 220 224 230 235 240 242 242 240 240 240 242 245 247 246 244 242 241 241 240 240 242 245 244 242 240 241 243 246
273 269 263 259 256 254 258 268 275 276 278 280 282 287 290 287 284 285 287 287 283 276 272 273 276 280 284 286 288 289 292 296 298 298 298 297 294 288 280 272 265 261 256 250 244 241 241 240 239 240 242 240 236 234 233 234 236 237 233 228 228 232 236 240 243 244 244 243 242 243 247 249 249 248 245 243 241 239 237 240 244 246 243 241 240 241 244
265 262 265 267 269 270 272 282 288 287 287 285 283 286 292 290 287 286 286 285 281 276 272 273 276 280 284 286 288 289 291 294 295 296 296 295 292 286 278 270 265 262 258 252 245 242 242 242 239 238 241 242 235 229 228 229 231 235 237 235 235 238 242 245 246 247 248 249 248 248 249 249 248 247 247 247 245 240 235 236 242 245 244 241 240 241 244
262 263 267 270 273 276 280 289 296 296 291 286 282 284 288 287 284 284 285 283 279 274 272 273 275 277 281 285 287 288 290 293 295 295 296 295 291 283 274 266 262 261 258 253 248 244 243 243 240 237 240 243 238 231 227 226 226 230 233 234 236 239 243 247 247 245 245 247 247 247 249 249 246 244 244 244 244 241 236 236 240 243 242 240 241 243 245
266 267 269 270 272 274 279 289 297 297 290 284 282 283 284 282 282 284 286 285 281 276 274 274 273 274 278 282 284 285 289 293 295 296 298 297 290 281 271 261 258 259 257 253 249 246 243 242 241 238 238 242 242 236 231 227 225 227 230 233 237 242 245 247 248 246 245 248 246 243 244 244 243 241 239 239 242 242 238 237 240 242 240 239 240 242 243
265 267 269 270 270 274 282 291 295 296 293 289 287 283 283 284 286 287 288 287 285 281 278 275 273 273 276 278 279 283 289 291 293 296 299 296 287 278 269 258 253 255 256 253 249 245 242 239 237 235 236 239 240 236 231 231 232 231 233 236 242 246 243 241 242 243 242 245 248 245 241 239 240 241 239 239 242 243 241 241 242 240 237 237 238 240 243
262 265 267 269 273 279 285 289 292 295 297 296 289 282 282 286 287 288 288 286 284 282 280 276 274 273 273 274 276 282 286 288 290 293 296 293 284 275 267 257 251 252 253 250 244 238 234 232 230 229 229 232 234 232 229 230 233 233 233 235 239 240 239 237 239 241 237 236 242 245 244 243 245 245 244 242 242 242 242 241 240 238 238 239 241 244 250
260 264 268 271 275 278 280 284 288 292 296 296 289 282 282 283 284 284 285 285 284 281 278 275 274 272 271 272 276 281 284 285 286 289 292 291 282 273 266 259 253 253 251 242 233 227 224 222 223 222 222 224 225 224 224 224 226 225 220 221 224 226 228 232 235 237 238 238 242 246 249 250 251 251 250 249 246 244 242 241 240 241 245 247 249 253 257
259 264 269 271 272 274 278 283 287 290 292 293 289 284 281 280 278 277 278 280 282 279 275 272 271 271 272 274 278 282 284 284 285 287 289 288 280 270 266 262 256 259 254 234 221 218 215 214 215 213 213 216 216 215 218 219 221 221 216 213 212 212 216 221 226 230 235 240 245 247 247 250 252 251 253 255 253 249 247 246 245 246 249 252 255 258 259
259 264 268 270 272 275 280 284 288 290 290 288 286 282 277 274 274 274 275 277 278 275 271 269 269 271 273 276 279 282 285 285 287 288 288 286 277 266 265 264 259 262 258 228 212 208 203 204 208 206 206 209 206 207 212 213 215 220 219 214 204 200 208 211 213 225 230 229 234 240 239 239 238 236 238 241 240 241 244 246 246 246 248 252 253 252 253
259 263 267 271 274 276 279 283 287 290 288 284 281 278 273 269 271 275 279 279 277 273 270 270 271 272 275 277 279 283 286 287 289 289 286 283 272 259 259 262 257 258 259 235 213 204 198 199 204 205 205 204 198 199 199 196 201 209 209 207 204 204 213 212 207 215 215 199 192 204 213 215 217 217 219 222 223 227 232 235 236 234 234 238 242 246 251
258 262 266 270 274 275 277 280 285 288 286 282 278 274 272 271 273 279 282 280 278 275 272 272 273 274 275 277 279 284 288 290 291 290 285 279 266 252 251 254 250 250 252 241 224 214 210 209 209 209 211 207 203 202 192 176 186 192 181 180 192 197 203 207 205 208 207 194 189 195 200 205 210 211 213 216 219 222 222 218 216 215 217 224 233 240 246
255 259 263 268 271 273 274 277 282 285 282 277 273 273 274 275 277 280 281 280 279 276 273 272 273 273 274 276 280 284 290 292 292 290 285 276 262 249 246 246 245 248 243 230 221 221 223 220 215 216 218 214 209 209 201 188 190 189 174 171 188 192 193 201 204 207 210 210 210 212 214 220 221 214 211 210 211 215 217 217 220 223 227 236 243 248 253
254 257 261 265 269 271 272 275 280 281 277 272 271 271 273 276 278 278 279 280 279 276 272 270 269 271 273 277 282 287 291 294 293 287 283 277 261 246 240 237 240 246 237 220 214 218 219 218 216 216 218 218 214 211 207 201 197 194 187 187 195 198 204 212 213 214 218 221 226 228 230 236 238 236 235 233 229 232 234 237 243 248 251 255 259 263 266
253 256 259 263 266 268 270 273 276 275 272 269 268 267 269 273 275 275 275 275 275 273 270 267 267 270 275 278 283 289 293 295 294 290 286 280 263 244 233 227 231 239 233 221 218 219 217 217 219 218 217 220 219 213 208 205 202 202 202 203 205 213 222 230 238 245 245 243 249 252 255 265 274 279 286 286 279 275 271 268 267 266 265 266 267 267 268
250 254 258 260 262 264 266 269 270 269 266 264 262 263 266 270 271 271 270 270 270 271 270 268 268 271 276 279 284 290 294 295 294 292 290 283 264 244 232 226 229 236 230 221 218 220 218 217 219 220 220 222 222 217 211 209 210 214 217 221 226 236 251 266 274 276 273 267 265 268 275 284 289 293 298 296 290 286 281 276 273 270 269 268 268 268 269
248 251 255 257 259 261 262 264 263 260 258 256 255 258 262 264 265 268 270 270 270 270 269 267 268 271 275 280 284 289 292 292 289 288 291 286 266 247 235 232 237 241 232 222 218 219 219 217 216 218 219 221 223 224 223 223 226 228 230 237 247 254 261 268 274 278 280 277 273 271 272 276 279 284 287 286 282 279 275 272 270 269 268 267 267 268 270
246 250 252 255 257 258 258 257 255 254 254 253 253 255 258 259 261 265 268 269 269 269 269 267 267 268 274 279 285 288 290 289 284 282 281 271 255 245 238 237 242 244 237 227 221 217 216 216 215 215 218 222 227 231 235 238 238 238 240 244 251 258 264 268 269 270 273 276 277 277 276 275 276 277 277 277 275 273 271 270 267 266 266 266 267 270 273
246 249 251 252 253 253 253 252 251 251 251 252 252 252 254 257 261 264 267 268 268 270 271 268 264 265 270 276 281 285 287 286 282 278 273 261 253 248 241 238 242 242 235 229 225 220 217 215 214 215 220 227 234 239 243 246 247 247 248 250 254 259 265 268 271 273 273 274 275 276 275 274 273 274 275 277 276 274 272 271 270 270 272 275 278 281 284
245 246 247 247 248 248 248 247 246 247 248 247 247 248 251 256 261 264 267 268 267 269 271 267 262 261 265 271 278 282 284 284 282 277 271 263 258 251 241 234 236 237 230 225 223 220 216 215 217 221 227 234 241 246 248 250 250 249 250 252 255 261 267 271 272 272 272 273 272 270 268 267 266 269 272 274 275 275 274 274 276 277 279 282 284 287 289
242 242 243 244 244 243 243 242 243 244 243 241 241 244 249 254 259 262 264 264 265 266 267 265 262 259 260 267 276 279 278 280 280 274 265 258 255 251 240 233 233 233 228 224 220 217 216 219 224 230 237 242 245 248 250 251 251 250 250 251 254 261 269 274 274 272 270 270 267 263 261 260 261 264 266 268 269 270 271 273 275 276 279 282 285 288 290
238 240 241 241 239 240 239 238 238 239 239 239 241 246 250 253 256 258 260 261 263 264 265 265 262 259 259 267 274 273 272 278 284 277 264 254 250 248 240 234 234 232 227 222 219 217 219 222 225 232 243 248 247 246 248 250 251 250 249 250 253 259 266 270 270 269 267 263 257 254 254 255 257 259 262 265 267 269 271 274 276 280 284 288 291 293 294
235 237 239 238 236 236 236 234 234 236 238 241 246 249 251 252 254 254 256 260 262 262 261 261 260 259 261 267 270 267 266 269 265 256 249 246 249 248 239 235 238 238 233 227 224 224 226 227 226 230 241 249 248 245 244 245 246 247 247 248 251 256 260 261 261 261 261 259 255 252 251 251 253 255 258 262 265 268 271 275 280 286 291 294 296 297 298
232 235 237 238 237 237 237 235 234 235 237 242 246 248 248 249 250 251 253 257 260 260 259 258 258 259 261 265 266 263 259 253 246 243 242 244 245 235 225 228 241 249 248 238 229 226 229 232 232 234 237 242 246 246 243 243 243 244 244 245 248 250 252 254 256 258 258 259 260 259 258 259 260 262 265 268 270 272 275 279 285 290 293 295 296 297 299
232 234 237 239 241 241 240 239 236 235 237 241 245 245 245 245 246 247 249 254 257 259 259 257 256 256 257 261 262 259 250 241 242 243 241 240 235 225 224 235 250 261 261 241 219 213 220 227 232 238 243 246 249 250 248 246 244 241 238 237 238 240 243 248 251 254 256 258 261 264 265 266 268 270 273 276 278 282 286 289 292 292 293 293 294 295 296
237 237 238 239 240 241 241 240 238 236 237 239 241 242 242 241 241 243 247 253 256 258 258 257 255 254 254 257 259 256 246 239 243 244 240 237 233 228 232 242 249 250 247 225 203 204 216 222 225 233 240 244 248 252 250 244 236 230 229 231 231 232 237 241 244 247 249 252 256 259 263 266 270 273 276 279 282 284 287 289 289 290 290 291 293 294 295
237 237 237 236 235 236 237 238 237 236 237 239 240 240 240 240 240 242 247 253 256 256 256 255 253 251 252 254 255 253 250 246 247 246 241 236 234 231 233 238 238 232 226 207 194 200 214 218 219 224 230 234 240 245 243 235 225 220 223 227 228 229 232 234 237 240 243 245 249 253 257 263 269 273 276 278 280 283 284 285 286 287 288 289 291 292 294
235 235 235 234 234 234 236 237 238 238 238 239 239 240 240 241 242 244 246 251 254 255 253 252 249 248 250 253 253 253 251 249 247 245 242 238 235 232 231 234 235 230 222 213 206 208 215 219 220 221 225 230 234 236 234 231 228 226 225 224 223 225 229 231 233 238 241 244 248 253 258 263 267 270 272 275 279 282 284 285 285 285 286 288 290 293 295
235 235 235 235 235 235 236 237 238 238 238 238 239 240 242 243 242 242 243 246 249 250 249 248 245 243 245 250 253 254 253 250 247 245 242 238 235 233 232 233 232 227 221 216 215 217 221 226 227 224 220 221 224 226 227 230 233 233 230 224 220 222 230 237 240 244 247 252 256 260 263 266 267 268 272 276 281 283 284 284 284 285 286 288 290 293 295
236 236 237 236 236 236 236 237 237 238 238 238 238 238 240 240 239 237 237 240 244 246 247 245 242 240 242 246 250 250 250 247 244 241 237 234 231 230 230 229 227 222 218 214 213 216 221 224 224 222 217 214 213 215 218 222 225 228 229 226 224 229 239 247 252 255 258 261 264 267 268 268 269 271 275 279 282 284 286 287 287 288 289 291 292 294 295
238 239 239 239 239 237 237 237 238 238 237 237 237 236 236 236 235 233 232 236 240 242 243 242 240 238 239 242 244 246 247 247 245 241 237 234 229 225 223 221 218 216 214 210 207 209 213 215 213 211 212 215 218 221 226 231 235 239 242 243 245 247 251 255 258 261 264 266 267 268 270 271 273 276 279 282 285 287 288 289 290 291 292 293 294 295 296
238 239 240 241 240 238 237 237 237 236 236 235 234 232 231 231 230 229 229 232 236 239 239 239 237 236 236 238 241 242 244 246 246 245 241 236 229 222 216 213 212 213 211 208 203 202 207 214 218 219 220 224 229 233 237 242 247 251 253 256 258 260 262 263 265 266 267 269 270 273 275 276 278 280 282 284 286 288 290 291 292 292 293 294 295 297 299
237 238 238 238 237 236 235 233 232 232 232 230 228 226 226 226 226 226 227 230 233 235 235 234 233 232 233 235 237 240 243 246 248 248 243 237 229 220 213 210 210 211 211 209 205 204 209 215 222 228 231 234 238 242 247 252 257 261 264 266 269 271 273 275 276 277 278 280 282 283 283 283 283 284 285 286 288 289 290 291 292 293 294 296 298 300 301
238 238 237 236 234 232 230 229 228 228 227 225 223 222 222 222 223 225 228 229 230 231 230 230 230 230 231 233 236 240 244 246 247 247 244 239 231 222 214 211 211 212 213 214 213 214 217 221 226 232 238 243 247 252 257 261 266 270 273 275 277 278 279 280 282 284 286 287 287 286 286 286 286 286 287 288 289 290 291 293 294 296 298 300 301 303 304
241 241 240 238 234 230 228 227 226 224 222 221 220 220 219 220 222 225 228 228 227 226 226 227 229 231 234 236 239 241 244 246 246 246 243 240 235 227 220 218 217 216 216 219 222 225 228 231 235 240 246 252 257 262 265 269 272 275 277 279 279 280 280 281 282 284 284 284 284 284 285 286 287 288 289 290 291 293 294 296 298 300 301 302 303 304 304
244 244 242 239 234 229 225 223 221 220 219 219 218 217 216 217 221 225 226 224 222 222 223 227 232 236 237 238 239 241 242 243 244 243 241 240 237 233 229 228 227 225 222 224 230 236 240 244 248 251 255 259 263 266 269 272 274 276 278 278 279 279 280 281 281 282 282 283 285 286 287 288 289 290 291 293 294 296 298 299 301 302 303 303 303 304 304
243 241 238 236 233 228 224 220 218 217 217 217 216 215 215 216 219 222 222 220 219 221 225 230 235 237 238 238 239 240 240 240 241 242 241 240 237 234 233 232 232 231 229 230 234 239 245 249 253 256 259 262 265 268 271 273 276 277 278 278 279 280 281 281 282 283 284 286 287 288 289 290 291 292 294 296 298 299 300 301 302 303 303 303 303 303 304
241 236 232 231 230 228 225 222 219 217 216 215 215 214 214 215 217 219 220 221 222 225 230 234 237 238 239 239 240 240 241 242 242 242 240 238 235 234 234 234 234 234 234 235 237 241 246 250 254 258 261 265 268 271 274 276 277 278 278 279 281 281 282 283 284 286 287 288 289 290 292 293 294 295 296 297 298 299 300 301 301 301 302 302 303 304 305
239 234 229 226 226 226 225 223 220 218 216 215 214 214 214 215 216 218 221 223 225 229 233 236 238 238 239 241 243 244 243 243 241 240 239 238 237 236 236 237 236 237 238 240 242 244 248 253 257 261 265 268 271 273 275 276 277 277 279 281 283 284 285 286 287 288 290 291 292 293 295 296 296 297 297 297 298 298 299 299 299 299 301 302 304 305 305
235 232 228 225 224 224 224 223 222 220 218 216 216 217 217 216 216 218 221 223 226 231 236 239 241 242 243 244 247 247 245 242 242 241 240 240 241 240 239 239 240 240 242 244 247 249 253 257 261 264 266 269 271 273 274 276 277 279 281 282 283 284 286 287 288 289 291 292 293 294 295 295 295 295 296 296 297 297 297 297 298 300 302 304 305 304 305
236 233 231 228 227 227 225 223 220 218 217 217 218 218 218 218 220 224 228 229 230 233 236 238 242 246 247 246 245 246 245 243 243 243 243 244 244 244 244 243 243 244 245 248 251 254 258 261 263 264 266 268 269 271 272 274 276 279 280 282 283 285 287 288 289 289 290 291 292 292 293 293 294 294 295 295 295 296 297 299 301 303 304 305 305 305 305
238 236 234 232 231 230 227 223 220 218 219 219 219 218 220 223 229 233 234 233 233 236 236 233 235 242 247 246 243 243 243 241 239 240 242 244 246 248 250 250 249 248 249 251 255 258 259 260 261 262 263 265 267 269 271 273 276 278 281 283 285 286 287 287 288 289 289 290 290 291 291 292 293 293 293 294 295 297 299 301 303 305 306 306 306 307 308
233 233 233 232 231 228 224 220 218 218 219 220 219 219 223 228 231 232 232 232 234 237 238 234 233 238 245 248 245 244 244 242 239 238 240 243 246 249 252 253 253 252 251 253 255 257 257 257 259 261 264 266 269 271 273 276 278 280 281 283 284 284 285 286 287 287 288 289 289 290 291 292 292 292 293 295 297 299 302 304 305 306 307 308 308 309 310
231 231 231 230 228 225 222 219 218 219 219 219 219 220 224 228 231 232 233 234 234 236 238 238 236 238 243 247 248 248 248 246 243 242 243 245 248 251 253 254 253 252 252 252 253 254 255 258 261 264 267 270 272 274 276 278 279 280 281 282 283 283 284 285 286 287 287 289 290 291 292 292 292 293 295 297 299 301 304 306 307 308 309 309 310 310 311
229 231 230 228 226 225 224 223 223 223 222 222 222 223 226 230 233 235 235 235 235 236 240 241 239 238 240 246 249 250 250 249 249 250 251 252 253 255 255 255 253 252 252 253 255 257 259 262 265 267 270 272 274 276 277 278 279 280 281 282 283 284 284 285 286 288 289 290 291 292 293 293 293 294 296 298 300 303 306 308 309 310 310 310 311 311 312
Height
5836 5837 5837 5837 5838 5839 5841 5841 5842 5843 5844 5844 5844 5844 5844 5844 5844 5844 5843 5842 5841 5840 5840 5840 5839 5838 5838 5837 5837 5837 5836 5836 5835 5835 5835 5834 5834 5834 5834 5835 5837 5838 5839 5840 5841 5842 5843 5844 5845 5846 5847 5847 5848 5850 5851 5852 5854 5856 5858 5860 5863 5865 5866 5868 5870 5872 5874 5875 5876 5876 5878 5880 5882 5883 5885 5886 5887 5888 5889 5891 5893 5894 5895 5896 5896 5897 5897
5835 5834 5835 5835 5836 5837 5838 5839 5840 5841 5841 5842 5842 5842 5842 5842 5842 5841 5841 5840 5839 5838 5838 5838 5837 5836 5836 5835 5835 5835 5835 5834 5833 5832 5832 5831 5831 5831 5831 5831 5833 5834 5835 5836 5838 5839 5839 5840 5841 5842 5843 5843 5844 5846 5847 5848 5850 5851 5854 5856 5859 5862 5864 5865 5866 5868 5871 5873 5874 5875 5875 5877 5879 5880 5881 5882 5883 5885 5886 5887 5889 5890 5892 5893 5894 5894 5894
5833 5833 5833 5833 5834 5835 5836 5837 5837 5838 5839 5839 5839 5839 5839 5839 5839 5839 5838 5838 5837 5836 5836 5836 5835 5834 5834 5833 5833 5833 5832 5831 5830 5830 5829 5828 5828 5828 5827 5828 5828 5830 5832 5833 5834 5835 5836 5837 5838 5839 5839 5840 5841 5842 5843 5844 5845 5846 5848 5852 5855 5858 5860 5862 5863 5865 5868 5871 5872 5873 5874 5875 5876 5877 5878 5880 5881 5882 5883 5885 5886 5888 5889 5890 5891 5891 5891
5831 5831 5831 5831 5831 5832 5833 5834 5835 5836 5836 5836 5836 5836 5836 5836 5836 5836 5836 5835 5834 5834 5834 5833 5833 5832 5832 5831 5831 5830 5830 5829 5828 5827 5826 5825 5825 5824 5824 5824 5825 5826 5828 5830 5831 5832 5833 5834 5834 5835 5836 5837 5837 5838 5839 5840 5840 5841 5844 5847 5850 5854 5857 5858 5860 5862 5864 5866 5868 5870 5871 5872 5873 5874 5875 5877 5878 5880 5881 5883 5884 5885 5886 5887 5888 5888 5888
5829 5829 5829 5829 5829 5830 5831 5832 5833 5834 5834 5834 5834 5833 5833 5833 5834 5834 5833 5832 5832 5831 5831 5831 5830 5830 5829 5829 5828 5828 5827 5826 5825 5824 5823 5822 5822 5821 5820 5820 5821 5822 5824 5826 5827 5828 5829 5830 5831 5832 5832 5833 5834 5835 5836 5837 5837 5838 5840 5844 5847 5851 5853 5854 5856 5858 5859 5861 5863 5865 5865 5866 5867 5869 5871 5874 5876 5878 5880 5881 5882 5882 5883 5884 5884 5884 5885
5827 5827 5827 5828 5828 5829 5830 5830 5831 5832 5831 5831 5831 5831 5830 5830 5831 5831 5830 5829 5829 5829 5829 5829 5828 5827 5827 5826 5826 5825 5825 5824 5822 5821 5820 5819 5818 5818 5817 5817 5818 5818 5820 5822 5823 5824 5825 5827 5828 5828 5829 5829 5831 5832 5833 5834 5835 5835 5838 5841 5844 5847 5849 5850 5851 5853 5854 5856 5858 5860 5860 5861 5862 5865 5867 5871 5873 5875 5877 5877 5877 5878 5879 5880 5880 5881 5882
5825 5825 5825 5826 5826 5827 5828 5828 5829 5829 5829 5829 5828 5828 5828 5828 5828 5827 5827 5827 5826 5826 5826 5826 5825 5825 5824 5824 5823 5823 5823 5821 5820 5818 5817 5816 5815 5814 5814 5814 5815 5815 5816 5817 5819 5820 5821 5823 5824 5826 5826 5826 5827 5829 5830 5831 5833 5834 5836 5839 5842 5845 5846 5847 5849 5851 5853 5854 5855 5856 5856 5858 5860 5862 5864 5867 5869 5871 5872 5872 5872 5872 5873 5874 5876 5878 5879
5823 5823 5823 5824 5824 5825 5826 5826 5826 5826 5826 5826 5826 5826 5825 5825 5824 5824 5824 5824 5823 5823 5823 5823 5823 5822 5822 5822 5821 5821 5820 5819 5818 5816 5814 5813 5812 5811 5811 5811 5811 5812 5812 5814 5815 5816 5818 5819 5821 5823 5824 5824 5824 5825 5827 5828 5830 5832 5834 5837 5840 5841 5842 5843 5845 5848 5850 5851 5852 5852 5853 5855 5857 5858 5860 5862 5864 5865 5866 5867 5868 5867 5867 5869 5872 5875 5875
5820 5821 5821 5821 5822 5824 5824 5824 5824 5824 5824 5823 5823 5823 5823 5822 5822 5821 5821 5821 5821 5821 5821 5821 5820 5820 5820 5819 5819 5818 5818 5816 5815 5813 5812 5811 5809 5808 5808 5808 5808 5809 5809 5810 5812 5813 5814 5816 5818 5819 5821 5822 5822 5823 5824 5825 5827 5830 5832 5834 5836 5837 5838 5839 5842 5844 5845 5846 5847 5849 5850 5852 5854 5854 5855 5857 5859 5860 5861 5862 5862 5861 5863 5867 5870 5871 5871
5818 5818 5819 5819 5820 5821 5822 5822 5822 5822 5822 5821 5821 5821 5821 5819 5819 5819 5818 5818 5818 5818 5818 5818 5818 5818 5817 5817 5816 5816 5815 5813 5812 5811 5810 5808 5806 5805 5805 5805 5805 5806 5806 5807 5809 5810 5811 5812 5814 5816 5818 5819 5820 5821 5822 5823 5825 5827 5829 5831 5832 5833 5835 5837 5839 5840 5840 5841 5843 5846 5847 5848 5849 5849 5850 5852 5854 5856 5857 5857 5856 5856 5859 5863 5866 5866 5867
5815 5816 5817 5817 5818 5819 5820 5820 5820 5820 5819 5819 5819 5819 5819 5817 5816 5816 5816 5815 5815 5815 5815 5815 5815 5816 5815 5814 5813 5813 5812 5810 5809 5808 5807 5806 5804 5803 5802 5802 5802 5803 5804 5804 5806 5807 5808 5809 5810 5813 5815 5817 5818 5818 5819 5820 5822 5824 5826 5828 5828 5829 5832 5833 5835 5835 5835 5836 5839 5841 5841 5842 5842 5843 5844 5846 5848 5850 5851 5853 5853 5853 5855 5858 5861 5862 5863
5813 5814 5814 5815 5816 5817 5818 5818 5818 5817 5817 5817 5817 5817 5816 5815 5815 5814 5814 5813 5813 5812 5813 5813 5813 5813 5812 5812 5811 5810 5809 5808 5807 5805 5805 5803 5802 5800 5800 5800 5800 5801 5801 5802 5803 5804 5805 5806 5807 5810 5812 5814 5814 5815 5816 5817 5819 5821 5824 5825 5826 5827 5829 5830 5831 5831 5831 5833 5834 5834 5834 5835 5836 5837 5838 5840 5842 5844 5847 5848 5849 5850 5852 5854 5856 5857 5858
5810 5811 5812 5812 5813 5815 5815 5815 5815 5815 5815 5815 5815 5814 5814 5813 5813 5812 5811 5811 5810 5810 5810 5810 5810 5810 5810 5809 5808 5808 5807 5806 5805 5804 5802 5801 5800 5798 5798 5798 5798 5799 5799 5800 5800 5801 5802 5803 5805 5807 5809 5811 5812 5813 5814 5815 5817 5819 5821 5822 5824 5825 5826 5827 5827 5827 5829 5831 5829 5827 5828 5829 5830 5832 5833 5835 5837 5840 5842 5844 5845 5847 5848 5850 5851 5853 5854
5808 5808 5809 5810 5811 5812 5813 5812 5812 5812 5813 5813 5812 5811 5811 5811 5811 5810 5809 5808 5808 5808 5808 5807 5807 5807 5807 5806 5806 5805 5804 5804 5803 5802 5800 5799 5798 5797 5796 5796 5796 5797 5797 5797 5798 5799 5800 5801 5802 5804 5806 5808 5810 5811 5812 5813 5815 5816 5818 5819 5821 5822 5824 5824 5824 5824 5826 5827 5824 5822 5823 5825 5826 5828 5829 5831 5833 5835 5837 5839 5841 5843 5844 5846 5848 5849 5851
5805 5805 5806 5807 5808 5809 5810 5810 5810 5810 5810 5810 5810 5809 5809 5809 5808 5808 5807 5806 5806 5806 5805 5805 5805 5804 5804 5804 5803 5803 5802 5801 5800 5799 5798 5797 5795 5795 5794 5794 5794 5795 5795 5796 5796 5797 5797 5798 5800 5802 5804 5806 5808 5809 5810 5812 5812 5813 5814 5816 5817 5819 5820 5821 5821 5820 5821 5821 5820 5819 5821 5822 5823 5825 5826 5828 5830 5832 5834 5836 5838 5839 5841 5842 5844 5845 5846
5802 5803 5804 5804 5805 5806 5807 5807 5808 5808 5808 5808 5807 5807 5806 5806 5806 5805 5804 5804 5804 5804 5803 5803 5802 5802 5801 5801 5801 5800 5799 5798 5798 5797 5796 5794 5793 5793 5792 5792 5792 5793 5793 5793 5794 5795 5796 5797 5798 5801 5802 5804 5805 5807 5808 5809 5810 5810 5811 5812 5814 5816 5817 5817 5816 5816 5816 5817 5818 5818 5819 5820 5822 5823 5824 5825 5826 5828 5830 5832 5833 5835 5836 5838 5839 5841 5842
5798 5800 5800 5801 5802 5803 5804 5804 5805 5805 5805 5805 5804 5804 5804 5803 5803 5802 5802 5802 5802 5802 5801 5801 5800 5800 5799 5798 5798 5797 5797 5796 5795 5794 5793 5792 5791 5791 5790 5790 5790 5791 5791 5791 5792 5793 5795 5796 5798 5800 5801 5802 5803 5804 5805 5806 5807 5808 5808 5810 5812 5814 5814 5813 5814 5814 5814 5815 5815 5815 5816 5817 5819 5820 5821 5821 5823 5824 5826 5827 5828 5830 5832 5834 5834 5835 5836
5795 5796 5797 5798 5799 5800 5801 5801 5801 5802 5801 5801 5801 5801 5801 5800 5800 5800 5800 5800 5800 5799 5799 5798 5798 5797 5796 5795 5795 5795 5794 5793 5792 5791 5791 5790 5789 5789 5788 5788 5789 5789 5790 5791 5791 5792 5793 5795 5796 5798 5799 5800 5801 5802 5803 5805 5806 5806 5807 5808 5810 5810 5810 5811 5812 5812 5812 5812 5812 5812 5813 5814 5815 5816 5817 5818 5819 5821 5822 5823 5824 5826 5828 5829 5830 5831 5832
5791 5792 5793 5794 5796 5797 5798 5798 5798 5798 5798 5798 5798 5798 5798 5798 5798 5798 5798 5797 5797 5797 5796 5796 5795 5794 5794 5793 5792 5792 5792 5790 5789 5789 5788 5787 5787 5787 5787 5787 5787 5788 5789 5790 5791 5791 5792 5794 5795 5796 5798 5799 5800 5801 5803 5804 5804 5804 5805 5806 5807 5807 5807 5808 5809 5809 5810 5811 5810 5810 5810 5811 5812 5813 5814 5815 5816 5818 5819 5820 5821 5823 5824 5825 5827 5828 5829
5787 5788 5790 5791 5792 5793 5794 5795 5795 5795 5795 5795 5795 5795 5795 5795 5795 5795 5795 5795 5795 5794 5794 5793 5792 5792 5791 5790 5790 5790 5789 5788 5787 5786 5785 5785 5785 5786 5786 5786 5786 5787 5788 5789 5790 5791 5792 5793 5795 5796 5797 5798 5799 5800 5801 5802 5802 5803 5803 5804 5805 5805 5805 5806 5806 5807 5808 5809 5809 5809 5809 5810 5810 5811 5812 5813 5814 5815 5816 5817 5819 5820 5821 5822 5824 5825 5826
5784 5785 5786 5787 5789 5789 5790 5791 5791 5791 5791 5791 5792 5792 5792 5792 5792 5792 5792 5792 5792 5792 5791 5790 5790 5789 5789 5788 5788 5787 5787 5786 5785 5784 5783 5783 5783 5784 5785 5785 5785 5786 5787 5788 5789 5790 5791 5792 5794 5795 5796 5797 5798 5799 5800 5801 5802 5802 5803 5804 5804 5805 5805 5806 5806 5806 5807 5807 5808 5808 5809 5809 5810 5811 5811 5812 5813 5813 5814 5815 5816 5818 5819 5820 5821 5822 5824
5780 5781 5782 5783 5785 5786 5786 5787 5787 5787 5788 5788 5789 5789 5789 5789 5790 5790 5790 5790 5790 5790 5789 5789 5788 5787 5787 5786 5785 5785 5784 5783 5782 5782 5781 5782 5782 5782 5783 5784 5785 5786 5787 5787 5788 5789 5790 5791 5792 5794 5795 5796 5797 5798 5799 5800 5801 5802 5803 5804 5804 5805 5805 5806 5806 5806 5807 5807 5808 5808 5809 5809 5810 5810 5811 5812 5812 5813 5814 5815 5816 5817 5818 5819 5820 5820 5821
5775 5776 5777 5779 5781 5782 5782 5783 5784 5784 5785 5785 5786 5786 5786 5787 5787 5788 5788 5788 5788 5788 5787 5787 5787 5786 5785 5784 5784 5783 5782 5781 5780 5780 5780 5780 5780 5781 5782 5782 5783 5785 5786 5786 5787 5788 5789 5790 5791 5793 5794 5796 5797 5798 5799 5800 5801 5802 5802 5803 5804 5805 5805 5806 5806 5807 5807 5807 5807 5808 5808 5809 5810 5811 5811 5812 5813 5813 5814 5815 5815 5816 5817 5817 5818 5819 5819
5770 5772 5773 5775 5776 5778 5779 5779 5780 5781 5781 5782 5782 5783 5784 5784 5785 5785 5786 5786 5786 5786 5786 5785 5785 5784 5783 5782 5782 5781 5781 5780 5779 5779 5778 5779 5779 5779 5780 5781 5782 5783 5784 5785 5786 5788 5789 5790 5791 5792 5794 5795 5796 5798 5799 5799 5800 5801 5802 5803 5804 5804 5805 5806 5806 5806 5806 5807 5807 5808 5808 5809 5810 5811 5812 5812 5813 5813 5814 5814 5815 5815 5815 5816 5816 5816 5817
5766 5768 5769 5771 5772 5774 5775 5776 5777 5777 5778 5779 5780 5780 5781 5782 5782 5783 5783 5784 5784 5784 5784 5783 5783 5782 5781 5780 5780 5780 5779 5778 5778 5777 5778 5778 5778 5778 5779 5781 5781 5782 5784 5785 5786 5788 5788 5789 5791 5792 5793 5795 5796 5797 5798 5799 5800 5800 5801 5802 5803 5804 5804 5805 5805 5806 5806 5806 5806 5807 5807 5808 5809 5810 5811 5812 5812 5812 5813 5813 5813 5813 5813 5814 5814 5814 5814
5762 5764 5765 5767 5769 5770 5771 5773 5773 5774 5775 5776 5777 5778 5778 5779 5780 5780 5781 5781 5782 5782 5781 5781 5780 5780 5779 5779 5778 5778 5777 5777 5776 5776 5776 5776 5776 5776 5778 5780 5780 5781 5783 5784 5786 5787 5788 5789 5790 5792 5793 5794 5795 5796 5797 5798 5799 5800 5801 5801 5802 5803 5803 5804 5804 5805 5805 5806 5806 5806 5807 5807 5808 5808 5809 5809 5810 5810 5811 5811 5811 5811 5811 5811 5811 5811 5812
5759 5760 5762 5763 5765 5767 5768 5769 5770 5771 5772 5773 5774 5775 5776 5776 5777 5778 5778 5778 5779 5779 5778 5778 5778 5778 5778 5777 5777 5776 5776 5775 5775 5774 5774 5774 5774 5775 5777 5778 5779 5780 5781 5783 5784 5786 5787 5788 5789 5791 5792 5793 5794 5795 5796 5796 5797 5798 5799 5800 5801 5801 5802 5803 5803 5804 5804 5804 5805 5805 5805 5806 5806 5807 5807 5808 5808 5808 5808 5809 5809 5809 5809 5809 5809 5809 5810
5755 5756 5757 5759 5762 5763 5764 5765 5767 5768 5769 5770 5771 5772 5773 5774 5774 5775 5775 5776 5776 5776 5776 5775 5775 5775 5775 5776 5775 5775 5774 5773 5773 5773 5773 5773 5773 5774 5775 5776 5777 5778 5779 5781 5783 5784 5786 5787 5788 5789 5790 5791 5793 5794 5794 5795 5795 5796 5797 5798 5799 5799 5800 5801 5801 5802 5802 5803 5803 5803 5804 5804 5805 5805 5805 5806 5806 5806 5807 5807 5807 5807 5807 5807 5807 5807 5807
5751 5752 5753 5756 5758 5759 5761 5763 5764 5765 5766 5768 5769 5770 5770 5771 5772 5772 5773 5773 5773 5773 5773 5773 5773 5773 5773 5773 5773 5773 5772 5772 5772 5771 5771 5772 5772 5773 5774 5775 5775 5776 5777 5779 5780 5782 5784 5785 5786 5787 5788 5789 5790 5791 5792 5793 5793 5794 5794 5795 5796 5797 5798 5798 5799 5799 5800 5800 5801 5801 5802 5802 5803 5803 5803 5804 5804 5805 5805 5805 5805 5805 5805 5805 5805 5805 5805
5746 5747 5749 5752 5754 5756 5758 5760 5761 5762 5763 5765 5766 5767 5768 5768 5769 5770 5770 5770 5771 5771 5770 5770 5770 5770 5771 5771 5771 5770 5771 5770 5769 5769 5770 5771 5771 5772 5773 5773 5774 5774 5775 5777 5778 5780 5781 5783 5784 5785 5786 5787 5788 5789 5790 5791 5791 5792 5792 5793 5794 5795 5796 5796 5796 5797 5797 5798 5799 5799 5800 5800 5801 5801 5802 5802 5803 5803 5803 5803 5803 5803 5803 5803 5802 5802 5801
5742 5744 5746 5749 5751 5753 5755 5756 5757 5759 5760 5762 5763 5764 5765 5765 5766 5767 5768 5768 5768 5768 5768 5768 5768 5768 5769 5769 5769 5769 5770 5769 5768 5768 5769 5770 5770 5770 5771 5771 5772 5773 5774 5775 5776 5778 5780 5781 5782 5783 5784 5785 5786 5787 5788 5789 5789 5790 5791 5792 5793 5793 5793 5794 5794 5794 5795 5796 5796 5797 5797 5798 5798 5799 5799 5800 5800 5800 5801 5801 5801 5801 5801 5800 5799 5799 5798
5739 5741 5744 5746 5748 5750 5751 5753 5754 5756 5757 5758 5759 5760 5762 5763 5763 5764 5764 5765 5765 5765 5766 5766 5766 5766 5767 5767 5767 5767 5768 5768 5768 5768 5768 5769 5769 5769 5769 5770 5771 5772 5773 5773 5774 5776 5778 5780 5781 5781 5782 5783 5784 5785 5786 5786 5787 5788 5789 5790 5791 5791 5792 5792 5792 5792 5793 5793 5794 5794 5795 5795 5796 5796 5797 5797 5797 5797 5798 5798 5798 5798 5797 5797 5796 5796 5795
5736 5739 5742 5743 5745 5746 5747 5748 5750 5751 5753 5754 5756 5757 5759 5760 5760 5761 5762 5762 5762 5763 5763 5764 5764 5764 5764 5765 5765 5765 5766 5766 5766 5766 5767 5767 5768 5768 5769 5770 5770 5771 5771 5771 5772 5774 5776 5777 5778 5779 5780 5781 5782 5783 5783 5784 5785 5786 5787 5788 5788 5789 5789 5790 5790 5791 5791 5792 5792 5792 5793 5793 5793 5794 5794 5794 5794 5794 5794 5794 5794 5794 5794 5793 5793 5792 5792
5734 5736 5737 5738 5740 5741 5743 5744 5745 5747 5749 5751 5753 5755 5756 5757 5758 5758 5759 5759 5760 5760 5761 5761 5762 5762 5762 5762 5763 5763 5764 5764 5764 5765 5765 5766 5767 5767 5768 5769 5769 5770 5770 5770 5771 5773 5774 5775 5776 5777 5778 5778 5779 5780 5780 5781 5783 5784 5784 5785 5785 5786 5787 5788 5788 5789 5789 5790 5790 5790 5791 5791 5791 5792 5792 5792 5792 5792 5792 5791 5791 5791 5791 5790 5790 5789 5789
5729 5731 5732 5734 5736 5737 5739 5740 5742 5744 5746 5748 5750 5751 5752 5753 5755 5756 5756 5757 5757 5758 5758 5759 5759 5760 5760 5760 5761 5761 5762 5763 5763 5763 5764 5764 5765 5766 5767 5768 5768 5769 5770 5770 5771 5772 5773 5773 5774 5775 5775 5776 5777 5778 5779 5780 5781 5781 5782 5782 5782 5783 5784 5785 5786 5787 5787 5788 5788 5789 5789 5790 5790 5790 5790 5790 5790 5789 5789 5789 5789 5788 5788 5787 5787 5786 5786
5725 5727 5728 5730 5732 5734 5736 5738 5739 5741 5743 5744 5746 5747 5748 5750 5751 5752 5753 5754 5755 5755 5756 5757 5757 5757 5758 5758 5759 5759 5760 5761 5761 5762 5762 5763 5764 5764 5765 5766 5767 5768 5768 5769 5770 5771 5771 5772 5772 5773 5774 5774 5775 5776 5777 5778 5779 5779 5780 5780 5781 5782 5783 5784 5785 5785 5786 5786 5787 5787 5787 5787 5787 5787 5787 5787 5787 5787 5786 5786 5786 5785 5785 5785 5784 5783 5783
5722 5723 5725 5726 5728 5731 5733 5734 5736 5737 5739 5740 5742 5743 5744 5746 5747 5749 5751 5751 5752 5752 5753 5754 5754 5755 5756 5756 5757 5757 5758 5759 5759 5760 5761 5761 5762 5763 5763 5764 5765 5766 5766 5767 5769 5770 5770 5771 5771 5772 5772 5773 5774 5775 5775 5776 5777 5777 5778 5779 5780 5780 5781 5782 5783 5783 5784 5784 5784 5784 5784 5784 5784 5784 5784 5784 5784 5783 5783 5783 5782 5782 5781 5781 5780 5780 5779
5719 5720 5721 5723 5725 5727 5729 5730 5732 5733 5735 5736 5738 5739 5740 5742 5744 5746 5747 5748 5749 5750 5751 5751 5752 5753 5753 5753 5754 5755 5755 5756 5757 5758 5758 5759 5760 5761 5762 5762 5763 5763 5764 5766 5767 5768 5769 5769 5770 5770 5771 5772 5772 5773 5774 5775 5775 5776 5777 5777 5778 5779 5779 5780 5780 5780 5780 5781 5781 5780 5780 5781 5781 5781 5781 5780 5780 5780 5779 5779 5778 5778 5777 5776 5775 5774 5773
5716 5717 5718 5719 5721 5723 5725 5726 5728 5730 5731 5733 5734 5735 5737 5739 5740 5742 5744 5745 5746 5747 5748 5749 5750 5750 5750 5751 5752 5752 5753 5754 5754 5755 5756 5757 5758 5759 5760 5760 5761 5761 5762 5764 5766 5767 5768 5768 5768 5769 5770 5770 5771 5772 5772 5773 5774 5774 5775 5775 5776 5776 5777 5777 5777 5777 5777 5777 5777 5777 5777 5777 5777 5777 5777 5776 5776 5776 5775 5775 5774 5773 5772 5771 5770 5769 5768
5712 5713 5714 5715 5717 5719 5721 5722 5724 5726 5727 5729 5730 5732 5733 5735 5737 5739 5740 5742 5743 5744 5745 5746 5747 5747 5748 5748 5749 5750 5751 5752 5752 5753 5754 5755 5756 5757 5758 5759 5759 5759 5761 5762 5764 5766 5766 5767 5767 5768 5768 5769 5770 5770 5771 5771 5772 5772 5773 5773 5773 5774 5774 5774 5774 5774 5774 5774 5774 5774 5774 5774 5773 5773 5773 5773 5772 5772 5771 5770 5769 5768 5767 5766 5765 5764 5762
5710 5710 5711 5712 5714 5715 5717 5718 5720 5722 5724 5726 5727 5729 5730 5732 5734 5736 5737 5739 5740 5741 5742 5743 5744 5745 5745 5746 5747 5748 5749 5750 5750 5751 5752 5753 5754 5755 5756 5757 5757 5758 5759 5761 5763 5764 5765 5766 5766 5766 5767 5767 5768 5768 5769 5769 5770 5770 5771 5771 5771 5771 5771 5770 5770 5770 5770 5770 5770 5770 5770 5770 5770 5769 5769 5769 5768 5767 5767 5766 5765 5764 5762 5761 5760 5758 5757
5707 5708 5709 5710 5711 5712 5714 5715 5717 5719 5721 5723 5724 5726 5728 5730 5731 5733 5734 5736 5737 5738 5739 5740 5741 5742 5743 5745 5746 5746 5747 5747 5748 5749 5750 5751 5752 5753 5754 5754 5755 5756 5758 5760 5761 5762 5763 5764 5764 5765 5765 5766 5766 5766 5767 5767 5767 5768 5768 5768 5768 5768 5768 5767 5767 5767 5767 5767 5767 5767 5767 5766 5766 5765 5764 5764 5763 5763 5762 5761 5760 5759 5757 5756 5754 5753 5751
5704 5705 5706 5707 5709 5710 5711 5713 5715 5716 5718 5720 5721 5723 5725 5727 5729 5730 5732 5733 5734 5735 5736 5737 5739 5740 5741 5742 5743 5744 5744 5744 5745 5746 5748 5749 5750 5751 5751 5752 5753 5754 5756 5758 5759 5760 5761 5761 5762 5763 5763 5764 5764 5765 5765 5765 5765 5765 5765 5765 5765 5765 5765 5765 5764 5764 5764 5764 5763 5763 5763 5762 5761 5761 5760 5759 5759 5758 5757 5756 5755 5753 5752 5751 5749 5748 5746
5702 5702 5704 5705 5706 5707 5709 5710 5712 5714 5715 5717 5719 5721 5723 5725 5726 5728 5729 5731 5732 5733 5734 5735 5736 5737 5738 5740 5740 5741 5741 5741 5742 5744 5745 5747 5748 5748 5749 5749 5751 5752 5754 5756 5757 5758 5758 5759 5760 5760 5761 5761 5762 5762 5762 5762 5762 5762 5762 5762 5762 5762 5761 5761 5761 5761 5760 5760 5760 5759 5759 5758 5757 5757 5756 5755 5754 5753 5752 5751 5750 5748 5747 5746 5744 5743 5741
5699 5700 5701 5702 5704 5705 5706 5708 5709 5711 5712 5714 5716 5718 5720 5722 5724 5725 5727 5728 5729 5730 5731 5733 5733 5734 5736 5737 5737 5738 5738 5739 5740 5742 5743 5744 5745 5746 5746 5747 5749 5750 5751 5753 5754 5755 5755 5756 5757 5757 5758 5758 5758 5758 5758 5758 5758 5758 5758 5758 5758 5758 5758 5757 5757 5757 5756 5756 5756 5755 5755 5754 5753 5752 5751 5751 5750 5749 5748 5746 5745 5744 5742 5741 5739 5737 5735
5696 5697 5698 5700 5701 5702 5704 5705 5707 5708 5710 5712 5714 5715 5717 5719 5721 5723 5724 5726 5727 5728 5730 5731 5731 5732 5733 5734 5735 5736 5737 5737 5738 5739 5740 5741 5742 5743 5744 5745 5746 5747 5748 5749 5751 5752 5752 5753 5753 5754 5754 5754 5754 5754 5754 5754 5754 5754 5754 5755 5754 5754 5753 5753 5753 5752 5752 5752 5751 5751 5750 5749 5748 5747 5746 5746 5746 5745 5744 5742 5741 5740 5738 5737 5735 5733 5730
5694 5695 5696 5697 5698 5699 5701 5702 5704 5706 5708 5710 5711 5713 5715 5716 5718 5720 5721 5723 5724 5725 5727 5728 5728 5729 5730 5731 5732 5733 5734 5735 5735 5736 5737 5738 5740 5741 5742 5742 5743 5744 5745 5746 5747 5748 5749 5749 5750 5750 5750 5750 5750 5750 5750 5750 5750 5751 5751 5751 5750 5750 5749 5749 5749 5748 5748 5748 5747 5747 5746 5745 5744 5743 5742 5742 5741 5740 5739 5738 5737 5735 5734 5732 5730 5728 5726
5691 5692 5693 5694 5695 5697 5698 5700 5702 5704 5706 5707 5708 5710 5711 5712 5715 5717 5719 5720 5722 5723 5724 5726 5727 5727 5727 5728 5729 5730 5731 5732 5732 5733 5734 5736 5737 5738 5739 5740 5741 5742 5742 5743 5744 5745 5746 5746 5746 5746 5746 5746 5746 5747 5747 5747 5747 5747 5747 5747 5746 5746 5746 5745 5745 5745 5744 5744 5743 5743 5742 5741 5740 5739 5738 5737 5736 5735 5734 5733 5731 5730 5728 5727 5725 5723 5721
5689 5690 5691 5692 5693 5694 5696 5698 5699 5701 5702 5703 5705 5706 5707 5709 5712 5715 5716 5718 5719 5720 5721 5723 5725 5725 5724 5725 5726 5727 5728 5729 5730 5731 5732 5733 5734 5735 5736 5737 5738 5739 5739 5740 5741 5742 5742 5742 5742 5742 5742 5743 5743 5744 5744 5744 5744 5744 5743 5743 5742 5742 5742 5741 5741 5741 5740 5740 5739 5739 5738 5737 5736 5735 5734 5732 5731 5730 5728 5727 5726 5724 5723 5721 5719 5717 5715
5687 5688 5688 5689 5690 5691 5693 5694 5696 5696 5698 5700 5702 5703 5704 5705 5708 5710 5712 5714 5715 5716 5718 5720 5721 5722 5722 5723 5723 5724 5725 5726 5727 5728 5729 5730 5731 5732 5733 5734 5734 5735 5736 5737 5738 5738 5739 5739 5739 5739 5740 5740 5740 5740 5740 5740 5740 5740 5739 5739 5739 5738 5738 5738 5737 5737 5736 5736 5735 5734 5733 5732 5731 5730 5729 5727 5726 5724 5723 5722 5720 5719 5717 5715 5713 5712 5710
5684 5685 5686 5687 5688 5689 5690 5691 5693 5694 5695 5698 5700 5701 5701 5702 5705 5707 5709 5711 5712 5713 5715 5716 5718 5718 5719 5720 5721 5722 5723 5724 5724 5725 5726 5727 5728 5729 5730 5731 5732 5732 5733 5734 5735 5735 5736 5736 5736 5736 5736 5737 5737 5736 5736 5736 5736 5736 5735 5735 5735 5734 5734 5733 5733 5732 5732 5731 5730 5730 5729 5728 5726 5725 5724 5722 5721 5719 5718 5716 5715 5713 5712 5710 5708 5706 5704
5682 5683 5684 5685 5686 5687 5688 5690 5691 5693 5694 5696 5698 5699 5700 5701 5703 5705 5707 5709 5710 5711 5712 5713 5714 5715 5716 5717 5718 5719 5720 5721 5721 5722 5722 5724 5725 5726 5727 5728 5729 5730 5730 5731 5732 5732 5732 5733 5733 5733 5733 5733 5733 5733 5732 5732 5732 5732 5732 5731 5731 5730 5729 5729 5728 5728 5727 5726 5725 5724 5723 5722 5721 5720 5719 5717 5716 5715 5713 5712 5710 5708 5707 5705 5703 5701 5700